Regional Weather Roundup
Issued by NWS State College, PA

Home | Current Version | Previous Version | Text Only | Print | Product List | Glossary On
Versions: 1 2 3 4 5 6 7 8 9 10 11 12 13 14 15 16 17 18 19 20 21 22 23 24 25 26 27 28 29 30 31 32 33 34 35 36 37 38 39 40 41 42 43 44 45 46 47 48 49 50
000
ASUS41 KCTP 271003
RWRCTP

REGIONAL WEATHER ROUNDUP
NATIONAL WEATHER SERVICE STATE COLLEGE PA
500 AM EST SAT DEC 27 2014

Note: "fair" indicates few or no clouds below 12,000 feet with no
significant weather and/or obstructions to visibility.

* = STATION THAT DOES NOT REPORT PRECIPITATION /E.G. RAIN...SNOW...ETC/
    THUNDER OR FOG.

PAZ002>004-007>009-013>016-020>023-029>032-271100-
WESTERN PENNSYLVANIA

CITY           SKY/WX    TMP DP  RH WIND       PRES   REMARKS
ERIE           CLOUDY    45  34  65 S7        30.15F
MEADVILLE      CLOUDY    40  31  70 S7        30.15F
FRANKLIN*      CLOUDY    36  28  75 S8        30.18S
NEW CASTLE       N/A     35  30  82 CALM      30.21R
BEAVER COUNTY  NOT AVBL
BUTLER*        CLEAR     34  28  80 S5        30.22S
PITTSBURGH INT PTCLDY    34  29  82 CALM      30.20S
PITTSBURGH     CLEAR     37  26  64 S9        30.20R
INDIANA*       PTCLDY    28  27  93 CALM      30.25R
LATROBE        CLEAR     28  27  93 CALM      30.24R
WASHINGTON CO* NOT AVBL
$$

PAZ004>006-010>012-017>019-024>028-033>037-041-042-045-046-049>053-271100-
CENTRAL PENNSYLVANIA

CITY           SKY/WX    TMP DP  RH WIND       PRES   REMARKS
BRADFORD       MOCLDY    36  28  73 CALM      30.15F
DUBOIS         FAIR      32  28  85 CALM      30.16F
CLEARFIELD     FAIR      29  27  92 N5        30.19F
JOHNSTOWN      PTCLDY    38  23  55 SW7       30.19R
ALTOONA        MOCLDY    37  27  67 SW7       30.22R
STATE COLLEGE  FAIR      36  28  74 CALM      30.19F
WILLIAMSPORT   CLOUDY    30  27  88 CALM      30.23R
SELINSGROVE    CLOUDY    29  27  92 CALM      30.23S FOG
FT INDIANTOWN  PTCLDY    27  26  94 CALM      30.24R
CAPITAL CITY   PTCLDY    30  27  88 CALM      30.24F
HARRISBURG     MOCLDY    29  27  92 CALM      30.24S
YORK           PTCLDY    26  24  92 CALM      30.23F
$$

PAZ038>040-043-044-047-048-054-055-060>062-067>071-271100-
EASTERN PENNSYLVANIA

CITY           SKY/WX    TMP DP  RH WIND       PRES   REMARKS
SCRANTON       PTCLDY    33  29  85 S8        30.20R
MOUNT POCONO   PTCLDY    36  28  73 NW7       30.16R
ALLENTOWN      PTCLDY    30  26  85 W5        30.23R
QUAKERTOWN*    NOT AVBL
READING        MOCLDY    30  27  88 CALM      30.23R
LANCASTER      PTCLDY    28  25  88 CALM      30.24R
COATESVILLE    MOSUNNY   34  30  86 NW7       30.23R
POTTSTOWN      MOCLDY    28  26  92 CALM      30.25R
BLUE BELL      MOCLDY    34  32  93 CALM      30.23R
DOYLESTOWN     MOCLDY    34  30  85 SW3       30.22R
WILLOW GROVE   NOT AVBL
NORTH PHILA    PTCLDY    35  28  75 CALM      30.25R
PHILADELPHIA   MOCLDY    34  31  88 CALM      30.25S
$$



USA.gov is the U.S. government's official web portal to all federal, state and local government web resources and services.